FENGYUN 1C DEB, 36232

Orbit data source: Space-Track

FENGYUN 1C DEB, 36232 is space debris in SSO originally from a launch on Mon, 10 May 1999 UTC launched from the Taiyaun Space Center, China (TSC). Fengyun 1C debris stems from the Chinese weather satellite Fengyun-1C, which was intentionally destroyed by a Chinese anti-satellite missile in 2007. This event dramatically increased the amount of space debris, with thousands of trackable fragments posing hazards to satellites and human spaceflight. The Fengyun 1C debris cloud has become a focal point in discussions about space sustainability and the need for international regulations to prevent the creation of new debris.

Loading next visibility...
Identifier
36232, 1999-025DVH
Orbit
SSO
Country
Flag of CNCN / PRC
Related business
Manufacturer
Unknown
Mission
Spacecraft
Bus & Motor
Unknown
Mass
Unknown
Launch date (UTC)
1999-05-10 (27 years ago)
Launch vehicle
Unknown
Launch site
Taiyaun Space Center, China (TSC)
Object type
Payload
Rocket body
Debris
Shape & HBR
Unknown shape, 0.1 m
Radar Cross Section
Small (<0.1 m²)

Expand to show TLE details & history
Last TLE update: 1 day ago

TLE from 1 day ago
0 FENGYUN 1C DEB
1 36232U 99025DVH 26255.16772119  .00000322  00000-0  18468-3 0  9992
2 36232  98.7322 237.0395 0117712 330.1218  29.3269 14.12781739655960
Epoch: 2026-09-12T04:01Z
TLE epoch observation values (Epoch: 2026-09-12T04:01:31.110Z)
Latitude
-0.00007°
Longitude
-174.52072°
Altitude
778.824 km
Speed
7.503 km/s
True Right ascension
15h 48m 09s
True Declination
0° 00' 00"
Sunlit
Object was in daylight at epoch
Visualization orbit readout
Latitude
Unknown
Longitude
Unknown
Altitude
Unknown
Speed
Unknown
Apparent Right ascension
Unknown
Apparent Declination
Unknown
Sunlit
N/A
Visualization observer readout
Local Sidereal Time
20:48:34
Azimuth
Unknown
Elevation
Unknown
Doppler factor
Unknown
Orbital elements
Apogee altitude
932.086 km
Perigee altitude
761.988 km
Semi-major axis
7,225.174 km
Eccentricity
0.01177
Inclination
98.7322°
RAAN
237.0395°
Arg. of periapsis
330.1218°
True anomaly
29.99614°
Mean anomaly
29.3269°
Eccentric anomaly
29.66065°
Mean motion
3.53403 °/min
Orbital period
101.87 mins
BSTAR
0.00018468
Loading maneuver chart data...
Computing Atmospheric mass density...

Documentation

Showing up to 5 results
|